KD8BMB Weather Reports


time (UTC)temp
F
wind
direction
speed
knots
gust
knots
rain 1hr
in
rain 24hr
in
rain mn
in
humidity
%
barometer
mb
20260903015744 74 310 0.0 0.0 0.00 0.21 0.21 99 1012.5
20260903015240 74 50 0.0 0.0 0.00 0.21 0.21 99 1012.5
20260903014735 74 9 0.0 0.0 0.00 0.21 0.21 99 1012.4
20260903014234 75 258 0.0 0.0 0.00 0.21 0.21 99 1012.3
20260903013730 74 307 0.0 0.0 0.00 0.21 0.21 99 1012.4
20260903013229 75 292 0.0 0.0 0.00 0.21 0.21 99 1012.3
20260903012727 74 312 0.0 0.0 0.00 0.21 0.21 99 1012.4
20260903012221 75 308 0.0 0.0 0.00 0.21 0.21 99 1012.3
20260903011716 75 300 0.0 0.0 0.00 0.21 0.21 99 1012.3
20260903011209 75 321 0.0 0.0 0.00 0.21 0.21 99 1012.0
20260903010706 74 285 0.0 0.0 0.00 0.21 0.21 99 1012.0
20260903010205 75 287 0.0 0.0 0.00 0.21 0.21 99 1012.0
20260903005659 75 298 0.0 0.0 0.00 0.21 0.21 99 1011.9
20260903005154 75 319 0.0 0.0 0.00 0.21 0.21 99 1011.7
20260903004650 75 291 0.0 0.0 0.00 0.21 0.21 99 1011.8
20260903004144 75 291 0.0 0.0 0.00 0.21 0.21 98 1011.6
20260903003640 75 320 0.0 0.0 0.00 0.21 0.21 98 1011.7
20260903003135 75 322 0.0 0.0 0.00 0.21 0.21 97 1011.5
20260903002630 75 318 0.0 0.0 0.00 0.21 0.21 97 1011.6
20260903002124 75 300 0.0 0.0 0.00 0.21 0.21 97 1011.4
20260903001619 76 307 0.0 0.0 0.00 0.21 0.21 96 1011.6
20260903001113 76 304 0.0 0.0 0.00 0.21 0.21 96 1011.6
20260903000609 76 80 0.0 0.0 0.00 0.21 0.21 95 1011.4
20260903000108 76 293 0.0 0.0 0.00 0.21 0.21 95 1011.4
20260902235607 76 308 0.0 0.0 0.00 0.21 0.21 94 1011.7
20260902235102 77 328 0.0 0.0 0.00 0.21 0.21 94 1011.7
20260902234556 77 341 0.0 0.0 0.00 0.21 0.21 94 1011.7
20260902234055 77 99 0.0 0.0 0.00 0.21 0.21 95 1011.8
20260902233550 78 93 0.0 0.0 0.00 0.21 0.21 97 1011.8
20260902233044 77 335 0.0 0.0 0.00 0.21 0.21 96 1011.7
20260902232544 78 356 0.0 0.9 0.00 0.21 0.21 96 1011.9
20260902232038 79 38 0.9 0.9 0.00 0.21 0.21 97 1011.7
20260902231533 80 327 0.9 1.7 0.00 0.21 0.21 97 1011.6
20260902231033 80 4 0.0 0.0 0.00 0.21 0.21 96 1011.5
20260902230533 80 327 0.0 0.0 0.00 0.21 0.21 95 1011.3
20260902230026 80 281 0.0 0.0 0.00 0.21 0.21 95 1011.1
20260902225522 80 316 0.0 0.0 0.00 0.21 0.21 95 1011.0
20260902225016 80 306 0.0 0.0 0.00 0.21 0.21 95 1011.0
20260902224515 80 284 0.0 0.0 0.00 0.21 0.21 94 1011.0
20260902224011 81 293 0.0 0.0 0.00 0.21 0.21 92 1011.0
20260902223507 80 308 0.0 0.0 0.07 0.21 0.21 89 1011.1
20260902223006 82 298 0.0 0.0 0.07 0.21 0.21 87 1011.0
20260902222504 83 308 0.0 0.0 0.00 0.20 0.20 82 1011.0
20260902221958 83 19 0.0 0.0 0.00 0.20 0.20 78 1011.0
20260902221458 83 255 0.0 0.0 0.00 0.20 0.20 79 1011.2
20260902220953 83 25 0.0 0.0 0.00 0.20 0.20 79 1011.1
20260902220453 83 336 0.0 0.0 0.00 0.20 0.20 79 1011.2
20260902215942 86 209 2.6 4.3 0.00 0.20 0.20 77 1011.6
20260902215438 90 321 3.5 5.2 0.00 0.20 0.20 67 1011.5
20260902214934 92 251 1.7 1.7 0.00 0.20 0.20 65 1011.0
20260902214432 93 2 0.0 1.7 0.00 0.20 0.20 63 1010.6
20260902213927 92 222 0.9 1.7 0.00 0.20 0.20 64 1010.8
20260902213423 92 293 1.7 4.3 0.00 0.20 0.20 63 1010.1
20260902212922 91 275 6.1 7.0 0.00 0.20 0.20 63 1010.2
20260902212418 92 280 4.3 7.0 0.00 0.20 0.20 63 1009.9
20260902211914 91 272 4.3 5.2 0.00 0.20 0.20 64 1010.5
20260902211409 91 248 2.6 2.6 0.00 0.20 0.20 64 1011.0
20260902210859 93 270 0.0 0.0 0.00 0.20 0.20 64 1010.8
20260902210358 92 242 2.6 4.3 0.00 0.20 0.20 63 1011.0
20260902205857 92 289 4.3 5.2 0.00 0.20 0.20 62 1010.8
20260902205351 91 270 7.8 8.7 0.00 0.20 0.20 63 1010.8
20260902204848 92 236 1.7 6.1 0.00 0.20 0.20 63 1011.0
20260902204347 92 243 4.3 4.3 0.00 0.20 0.20 62 1011.0
20260902203843 92 122 1.7 2.6 0.00 0.20 0.20 62 1011.0
20260902203338 92 245 0.9 1.7 0.00 0.20 0.20 63 1011.0
20260902202832 93 266 4.3 6.1 0.00 0.20 0.20 63 1011.0
20260902202328 93 290 0.0 0.0 0.00 0.20 0.20 62 1010.9
20260902201824 92 218 1.7 1.7 0.00 0.20 0.20 63 1010.8
20260902201319 92 349 0.9 1.7 0.00 0.20 0.20 63 1010.9
20260902200814 92 322 0.9 1.7 0.00 0.20 0.20 63 1011.2
20260902200309 93 301 1.7 4.3 0.00 0.20 0.20 63 1011.4
20260902195805 93 225 0.9 1.7 0.00 0.20 0.20 63 1011.4
20260902195306 91 242 0.0 0.9 0.00 0.20 0.20 65 1011.7
20260902194758 91 256 0.0 0.9 0.00 0.20 0.20 65 1011.5
20260902194253 91 318 3.5 6.1 0.00 0.20 0.20 65 1011.5
20260902193748 92 312 3.5 4.3 0.00 0.20 0.20 64 1011.4
20260902193244 92 321 2.6 4.3 0.00 0.20 0.20 64 1011.8
20260902192743 93 279 0.9 1.7 0.00 0.20 0.20 64 1011.9
20260902192242 91 297 1.7 2.6 0.00 0.20 0.20 65 1011.9
20260902191736 92 224 3.5 6.1 0.00 0.20 0.20 66 1012.0
20260902191236 91 249 1.7 2.6 0.00 0.20 0.20 65 1012.1
20260902190732 91 307 2.6 4.3 0.00 0.20 0.20 66 1012.1
20260902190231 92 212 6.1 7.8 0.00 0.20 0.20 68 1012.2
20260902185727 92 284 0.0 0.0 0.00 0.20 0.20 69 1012.1
20260902185223 92 284 0.9 1.7 0.00 0.20 0.20 68 1012.5
20260902184718 92 270 3.5 4.3 0.00 0.20 0.20 68 1012.4
20260902184214 90 256 0.9 1.7 0.00 0.20 0.20 70 1012.3
20260902183710 90 281 3.5 4.3 0.00 0.20 0.20 70 1012.5
20260902183206 90 314 2.6 4.3 0.00 0.20 0.20 72 1012.4
20260902182702 91 277 0.0 0.0 0.00 0.20 0.20 72 1012.4
20260902182158 90 306 0.0 0.9 0.00 0.20 0.20 73 1012.7
20260902181654 89 264 4.3 5.2 0.00 0.20 0.20 74 1012.2
20260902181153 89 290 0.9 4.3 0.00 0.20 0.20 76 1012.5
20260902180648 89 228 0.0 0.0 0.00 0.20 0.20 74 1012.4
20260902180144 89 246 0.0 0.0 0.00 0.20 0.20 76 1012.5
20260902175643 89 297 0.0 0.0 0.00 0.20 0.20 76 1012.5
20260902175139 89 277 0.0 0.0 0.00 0.20 0.20 77 1012.6
20260902174635 89 320 0.0 0.0 0.00 0.20 0.20 77 1012.5
20260902174131 89 303 0.0 0.9 0.00 0.20 0.20 77 1012.6
20260902173626 89 268 0.0 0.0 0.00 0.20 0.20 77 1012.9
20260902173121 89 263 0.9 2.6 0.00 0.20 0.20 77 1012.6
20260902172615 88 250 0.0 0.0 0.00 0.20 0.20 78 1013.0
20260902172109 87 32 0.0 0.0 0.00 0.20 0.20 80 1012.9
20260902171605 86 291 3.5 4.3 0.00 0.20 0.20 80 1013.0
20260902171101 87 202 1.7 2.6 0.00 0.20 0.20 79 1013.2
20260902170556 87 293 1.7 2.6 0.00 0.20 0.20 81 1013.6
20260902170051 86 321 0.9 1.7 0.00 0.20 0.20 80 1013.6
20260902165551 86 275 0.0 0.9 0.00 0.20 0.20 82 1013.4
20260902165046 86 314 2.6 4.3 0.00 0.20 0.20 81 1013.7
20260902164541 86 278 1.7 1.7 0.00 0.20 0.20 83 1013.9
20260902164039 86 269 0.0 1.7 0.00 0.20 0.20 84 1013.6
20260902163536 86 274 0.0 0.0 0.00 0.20 0.20 84 1013.6
20260902163033 85 253 0.0 0.0 0.00 0.20 0.20 85 1013.8
20260902162527 86 303 1.7 2.6 0.00 0.20 0.20 85 1013.9
20260902162023 85 307 1.7 2.6 0.00 0.20 0.20 85 1013.9
20260902161518 85 204 0.0 0.0 0.00 0.20 0.20 85 1013.8
20260902161014 85 248 0.0 0.0 0.00 0.20 0.20 86 1013.8
20260902160509 86 343 0.0 0.0 0.00 0.20 0.20 86 1013.7
20260902160010 86 45 0.9 1.7 0.00 0.20 0.20 86 1013.8
20260902155503 85 64 0.0 0.9 0.00 0.20 0.20 89 1013.8
20260902155001 84 341 0.0 0.0 0.00 0.20 0.20 88 1013.8
20260902154456 84 267 1.7 1.7 0.00 0.20 0.20 88 1014.0
20260902153952 84 259 0.0 0.0 0.00 0.20 0.20 88 1013.7
20260902153450 84 302 2.6 4.3 0.00 0.20 0.20 88 1013.9
20260902152946 84 311 1.7 1.7 0.00 0.20 0.20 88 1013.8
20260902152442 84 298 2.6 2.6 0.00 0.20 0.20 89 1014.0
20260902151937 84 242 3.5 4.3 0.00 0.20 0.20 89 1013.9
20260902151433 84 7 2.6 2.6 0.00 0.20 0.20 89 1013.9
20260902150926 84 305 2.6 4.3 0.00 0.20 0.20 88 1014.1
20260902150423 84 302 0.0 0.0 0.00 0.20 0.20 87 1013.9
20260902145923 85 280 0.0 0.0 0.00 0.20 0.20 87 1013.8
20260902145418 85 277 0.9 0.9 0.00 0.20 0.20 87 1013.5
20260902144913 85 238 0.9 0.9 0.00 0.20 0.20 87 1013.1
20260902144408 85 266 1.7 1.7 0.00 0.20 0.20 86 1012.9
20260902143903 86 270 0.0 0.9 0.00 0.20 0.20 85 1013.3
20260902143358 85 258 0.0 0.0 0.00 0.20 0.20 87 1013.1
20260902142853 83 302 0.0 0.0 0.00 0.20 0.20 89 1013.2
20260902142349 84 321 2.6 2.6 0.00 0.20 0.20 89 1013.3
20260902141844 84 211 0.0 0.0 0.00 0.20 0.20 89 1013.3
20260902141340 83 247 0.0 0.0 0.00 0.20 0.20 90 1013.1
20260902140839 83 280 0.9 1.7 0.00 0.20 0.20 90 1013.0
20260902140335 83 310 0.0 0.0 0.00 0.20 0.20 92 1013.2
20260902135834 82 179 0.0 0.0 0.00 0.20 0.20 91 1013.1
20260902135330 81 333 0.0 0.0 0.00 0.20 0.20 93 1013.4
20260902134829 80 287 0.0 0.9 0.00 0.20 0.20 95 1013.2
20260902134325 78 274 0.0 0.0 0.00 0.20 0.20 99 1013.5
20260902133820 78 219 0.0 0.0 0.00 0.20 0.20 99 1013.5
20260902133319 77 291 0.0 0.0 0.00 0.20 0.20 99 1013.6
20260902132815 77 237 0.9 1.7 0.00 0.20 0.20 99 1013.5
20260902132310 78 303 0.0 0.0 0.00 0.20 0.20 99 1013.5
20260902131806 77 23 0.0 0.0 0.00 0.20 0.20 99 1013.6
20260902131302 77 299 0.0 0.0 0.00 0.20 0.20 99 1013.8
20260902130801 76 245 0.0 0.0 0.00 0.20 0.20 99 1013.6
20260902130257 76 262 0.0 0.0 0.00 0.20 0.20 99 1013.9
20260902125752 76 272 0.0 0.0 0.00 0.20 0.20 99 1013.8
20260902125248 76 294 0.9 1.7 0.00 0.20 0.20 99 1014.0
20260902124744 76 288 0.0 0.0 0.00 0.20 0.20 99 1013.7
20260902124240 76 294 0.0 0.0 0.00 0.20 0.20 99 1013.8
20260902123735 75 292 0.0 0.0 0.00 0.20 0.20 99 1013.7
20260902123231 75 297 0.0 0.0 0.00 0.20 0.20 99 1013.6
20260902122729 75 304 0.0 0.0 0.00 0.20 0.20 99 1013.6
20260902122226 75 290 0.0 0.0 0.00 0.20 0.20 99 1013.7
20260902121725 74 305 0.0 0.0 0.00 0.20 0.20 99 1013.5
20260902121220 74 291 0.0 0.0 0.00 0.20 0.20 99 1013.6
20260902120716 74 312 0.0 0.0 0.00 0.20 0.20 99 1013.7
20260902120213 73 315 0.0 0.0 0.00 0.20 0.20 99 1013.8
20260902115712 73 324 0.0 0.0 0.00 0.20 0.20 99 1013.6
20260902115209 73 300 0.0 0.0 0.00 0.20 0.20 99 1013.2
20260902114704 73 291 0.0 0.0 0.00 0.20 0.20 99 1013.5
20260902114159 72 298 0.0 0.0 0.00 0.20 0.20 99 1013.6
20260902113655 72 268 0.0 0.0 0.00 0.20 0.20 99 1013.2
20260902113149 72 293 0.0 0.0 0.00 0.20 0.20 99 1013.4
20260902112644 72 289 0.0 0.0 0.00 0.20 0.20 99 1013.4
20260902112141 72 312 0.0 0.0 0.00 0.20 0.20 99 1013.3
20260902111636 72 301 0.0 0.0 0.00 0.20 0.20 99 1013.6
20260902111132 72 295 0.0 0.0 0.00 0.20 0.20 99 1013.6
20260902110628 72 295 0.0 0.0 0.00 0.20 0.20 99 1013.5
20260902110124 72 278 0.0 0.0 0.00 0.20 0.20 99 1013.5
20260902105623 72 276 0.0 0.0 0.00 0.20 0.20 99 1013.6
20260902105118 72 295 0.0 0.0 0.00 0.20 0.20 99 1013.5
20260902104614 72 275 0.0 0.0 0.00 0.20 0.20 99 1013.8
20260902104109 73 237 0.0 0.0 0.07 0.20 0.20 99 1013.8
20260902103608 72 236 0.9 1.7 0.07 0.20 0.20 99 1013.9
20260902103104 72 242 1.7 1.7 0.00 0.19 0.19 99 1013.5
20260902102555 73 313 0.0 0.0 0.00 0.19 0.19 99 1013.4
20260902102051 73 341 0.0 0.0 0.40 0.19 0.19 99 1013.3
20260902101547 73 292 0.0 0.0 0.94 0.19 0.19 99 1013.6
20260902101046 75 306 2.6 4.3 0.71 0.13 0.13 99 1014.5
20260902100545 76 276 2.6 2.6 0.19 0.03 0.03 99 1014.2
20260902100040 76 279 2.6 4.3 0.07 0.01 0.01 99 1014.5
20260902095540 76 290 0.9 1.7 0.00 0.00 0.00 99 1014.0
20260902095039 75 280 0.0 0.0 0.00 0.00 0.00 99 1013.7
20260902094535 75 248 0.0 0.0 0.00 0.00 0.00 99 1013.4
20260902094030 75 269 0.0 0.0 0.00 0.00 0.00 99 1013.7
20260902093525 75 270 0.0 0.0 0.00 0.00 0.00 99 1013.7
20260902093025 75 281 0.0 0.0 0.00 0.00 0.00 99 1013.4
20260902092520 75 264 0.0 0.0 0.00 0.00 0.00 99 1013.6
20260902092015 75 347 0.0 0.0 0.00 0.00 0.00 99 1013.4
20260902091510 75 267 0.0 0.0 0.00 0.00 0.00 99 1013.5
20260902091006 75 284 0.0 0.0 0.00 0.00 0.00 99 1013.7
20260902090501 75 288 0.0 0.0 0.00 0.00 0.00 99 1013.5
20260902090000 75 291 0.0 0.0 0.00 0.00 0.00 99 1013.2
20260902085455 75 300 0.0 0.0 0.00 0.00 0.00 99 1013.2
20260902084950 75 300 0.0 0.0 0.00 0.00 0.00 99 1012.9
20260902084447 75 287 0.0 0.0 0.00 0.00 0.00 99 1013.1
20260902083943 75 287 0.0 0.0 0.00 0.00 0.00 99 1013.1
20260902083442 76 281 0.0 0.0 0.00 0.00 0.00 99 1013.3
20260902082937 76 261 0.0 0.0 0.00 0.00 0.00 99 1013.3
20260902082433 76 308 0.0 0.0 0.00 0.00 0.00 99 1013.2
20260902081929 76 280 0.0 0.0 0.00 0.00 0.00 99 1013.1
20260902081425 76 279 0.0 0.0 0.00 0.00 0.00 99 1013.2
20260902080920 76 303 0.0 0.0 0.00 0.00 0.00 99 1013.3
20260902080416 76 287 0.0 0.0 0.00 0.00 0.00 99 1013.4
20260902075915 76 302 0.0 0.0 0.00 0.00 0.00 99 1013.3
20260902075412 76 292 0.0 0.0 0.00 0.00 0.00 98 1013.1
20260902074907 76 287 0.0 0.0 0.00 0.00 0.00 98 1013.3
20260902074403 76 263 0.0 0.0 0.00 0.00 0.00 98 1013.1
20260902073857 75 286 0.0 0.0 0.00 0.00 0.00 98 1013.0
20260902073354 75 289 0.0 0.0 0.00 0.00 0.00 98 1013.4
20260902072849 75 280 0.0 0.0 0.00 0.00 0.00 98 1013.2
20260902072345 75 293 0.0 0.0 0.00 0.00 0.00 98 1013.0
20260902071841 75 290 0.0 0.0 0.00 0.00 0.00 98 1013.4
20260902071341 75 282 0.0 0.0 0.00 0.00 0.00 98 1013.4
20260902070837 75 285 0.0 0.0 0.00 0.00 0.00 98 1013.2
20260902070332 75 288 0.0 0.0 0.00 0.00 0.00 98 1013.0
20260902065830 75 288 0.0 0.0 0.00 0.00 0.00 98 1013.0
20260902065326 75 320 0.0 0.0 0.00 0.00 0.00 97 1013.0
20260902064821 76 278 0.0 0.0 0.00 0.00 0.00 97 1012.9
20260902064317 76 277 0.0 0.0 0.00 0.00 0.00 97 1013.2
20260902063812 76 284 0.0 0.0 0.00 0.00 0.00 96 1013.0
20260902063307 76 293 0.0 0.0 0.00 0.00 0.00 96 1013.1
20260902062801 76 287 0.0 0.0 0.00 0.00 0.00 95 1013.2
20260902062256 76 291 0.0 0.0 0.00 0.00 0.00 95 1013.2
20260902061755 77 297 0.0 0.0 0.00 0.00 0.00 95 1013.2
20260902061250 77 309 0.0 0.0 0.00 0.00 0.00 95 1013.5
20260902060748 77 286 0.0 0.0 0.00 0.00 0.00 95 1013.5
20260902060243 76 294 0.0 0.0 0.00 0.00 0.00 95 1013.3
20260902055738 76 275 0.0 0.0 0.00 0.00 0.00 95 1013.6
20260902055234 76 271 0.0 0.0 0.00 0.00 0.00 95 1013.5
20260902054729 76 314 0.0 0.0 0.00 0.00 0.00 96 1013.6
20260902054225 76 299 0.0 0.0 0.00 0.00 0.00 96 1013.3
20260902053720 76 280 0.0 0.0 0.00 0.00 0.00 96 1013.5
20260902053220 76 291 0.0 0.0 0.00 0.00 0.00 96 1013.7
20260902052719 76 274 0.0 0.0 0.00 0.00 0.00 96 1013.4
20260902052215 76 285 0.0 0.0 0.00 0.00 0.00 95 1013.5
20260902051714 76 295 0.0 0.0 0.00 0.00 0.00 95 1013.6
20260902051209 76 314 0.0 0.0 0.00 0.00 0.00 95 1013.5
20260902050703 76 312 0.0 0.0 0.00 0.00 0.00 95 1013.8
20260902050159 76 314 0.0 0.0 0.00 0.00 0.00 95 1013.3
20260902045653 77 295 0.0 0.0 0.00 0.00 0.00 95 1013.5
20260902045149 77 278 0.0 0.0 0.00 0.00 0.00 95 1013.5
20260902044644 77 277 0.9 0.9 0.00 0.00 0.00 95 1013.8
20260902044140 77 293 0.9 0.9 0.00 0.00 0.00 96 1013.7
20260902043634 76 259 1.7 1.7 0.00 0.00 0.00 96 1013.7
20260902043130 76 297 0.0 0.0 0.00 0.00 0.00 97 1013.7
20260902042624 76 278 0.0 0.0 0.00 0.00 0.00 97 1013.4
20260902042119 76 280 0.0 0.0 0.00 0.00 0.00 98 1013.5
20260902041618 76 34 0.0 0.0 0.00 0.00 0.00 98 1013.5
20260902041114 76 284 0.0 0.0 0.00 0.00 0.00 98 1013.6
20260902040613 76 275 0.0 0.0 0.00 0.00 0.00 98 1013.7
20260902040109 76 274 0.0 0.0 0.00 0.00 0.00 98 1013.4
20260902035607 76 256 0.0 0.0 0.00 0.00 0.00 98 1013.4
20260902035103 76 295 0.0 0.0 0.00 0.00 0.00 98 1013.5
20260902034601 77 290 0.0 0.0 0.00 0.00 0.00 98 1013.5
20260902034101 77 283 0.0 0.0 0.00 0.00 0.00 97 1013.3
20260902033600 77 296 0.0 0.0 0.00 0.00 0.00 97 1013.4
20260902033055 77 287 0.0 0.0 0.00 0.00 0.00 97 1013.4
20260902032554 77 298 0.0 0.0 0.00 0.00 0.00 97 1013.6
20260902032049 77 264 0.0 0.0 0.00 0.00 0.00 97 1013.5
20260902031544 77 286 0.0 0.0 0.00 0.00 0.00 97 1013.5
20260902031040 77 294 0.9 0.9 0.00 0.00 0.00 97 1013.6
20260902030534 77 294 0.0 0.0 0.00 0.00 0.00 97 1013.4
20260902030034 77 278 0.0 0.0 0.00 0.00 0.00 98 1013.5
20260902025529 77 279 0.0 0.0 0.00 0.00 0.00 98 1013.4
20260902025024 77 268 0.0 0.9 0.00 0.00 0.00 99 1013.6
20260902024520 77 279 0.0 0.0 0.00 0.00 0.00 98 1013.2
20260902024019 77 280 0.0 0.0 0.00 0.00 0.00 98 1013.0
20260902023515 77 287 0.0 0.0 0.00 0.00 0.00 97 1013.1
20260902023016 77 291 0.0 0.0 0.00 0.00 0.00 97 1013.2
20260902022510 78 289 0.0 0.0 0.00 0.00 0.00 96 1013.3
20260902022006 78 294 0.0 0.0 0.00 0.00 0.00 96 1013.2
20260902021501 78 276 0.0 0.0 0.00 0.00 0.00 96 1013.1
20260902020956 78 278 0.0 0.0 0.00 0.00 0.00 96 1013.1
20260902020452 78 289 0.0 0.0 0.00 0.00 0.00 95 1013.2